Location: Gaj Stary
(52.0682°N, 19.3664°E)
Time: 17:03:47
(UTC+00:00)

Daily predictions for brighter satellites

Satellite Brightness Start Highest point End
(mag) Time Altitude Azimuth Time Altitude Azimuth Time Altitude Azimuth
Aureole 1 Rocket 4.1 19:39:35 10° NNW 19:45:05 75° ENE 19:52:16 10° SSE
Cosmos 292 Rocket 3.8 19:45:26 10° SSW 19:50:17 90° SSE 19:55:09 10° NNE
Cosmos 1025 Rocket 3.8 19:47:08 10° SSE 19:51:07 35° E 19:55:06 10° NNE
USA 267 3.8 19:45:34 10° E 19:52:01 62° N 19:58:27 10° WNW
KORONAS-FOTON 4.0 19:48:37 10° S 19:52:20 53° E 19:56:02 10° NNE
SL-16 R/B 2.2 19:46:51 10° SSW 19:52:32 85° ESE 19:58:14 10° NNE
Cosmos 2360 Rocket 2.6 19:47:31 10° S 19:52:50 44° ESE 19:58:10 10° NE
Cosmos 2322 Rocket 2.2 19:49:01 10° SSW 19:54:41 72° ESE 20:00:24 10° NNE
USA 81 4.4 19:49:35 10° N 19:54:51 67° W 20:00:04 10° S
Cosmos 1461 3.1 19:51:05 10° NW 19:55:20 67° SW 19:59:23 10° SSE
Genesis I 3.3 19:51:29 10° SW 19:55:22 84° NW 19:59:22 10° NE
CARTOSAT-1 3.6 19:51:30 10° SSE 19:55:50 88° ENE 20:00:11 10° NNW
Resurs 01 Rocket 3.1 19:52:50 10° SSW 19:56:51 34° W 20:00:54 10° NNW
USA 245 4.4 19:54:20 10° S 19:59:12 69° WSW 20:05:06 10° NNW
Cosmos 1900 4.4 19:55:48 10° NW 20:00:46 84° NE 20:05:39 10° SE
Meteor 1-16 Rocket 4.2 19:55:18 10° NNW 20:00:51 86° W 20:06:14 10° S
JB-3 4.4 19:57:19 10° NNE 20:01:16 66° ESE 20:05:15 10° S
Cosmos 1975 Rocket 3.0 20:00:16 10° S 20:04:37 82° E 20:09:03 10° NNE
Cosmos 1110 Rocket 4.3 20:00:06 10° S 20:05:03 49° ESE 20:10:05 10° NNE
ATLAS CENTAUR R/B 1.6 20:03:14 10° NW 20:07:29 74° NE 20:12:01 10° SE
Cosmos 2061 Rocket 4.3 20:01:11 10° N 20:07:36 62° ENE 20:13:56 10° SSE
SPOT 5 3.0 20:02:59 10° SSE 20:08:07 84° ENE 20:13:02 10° NNW
Cosmos 968 Rocket 4.3 20:03:22 10° NNW 20:08:14 41° NE 20:13:04 10° SE
Cosmos 1674 2.6 20:05:21 10° S 20:09:04 82° E 20:12:48 10° NNE
COSMOS 2428 4.0 20:06:59 10° SSE 20:11:20 23° ESE 20:15:43 10° NE
Cosmos 1980 Rocket 4.4 20:08:04 10° WSW 20:13:01 31° NW 20:17:59 10° NNE
Terra 1.9 20:10:43 10° SSE 20:15:27 72° ENE 20:20:14 10° N
Cosmos 2278 Rocket 3.4 20:10:39 10° NNW 20:15:51 35° NE 20:21:00 10° ESE
Cosmos 1300 3.3 20:12:25 10° N 20:16:06 43° ENE 20:19:35 11° SSE
Cosmos 2237 4.2 20:10:32 10° SSW 20:16:13 76° ESE 20:21:56 10° NNE
Lacrosse 5 3.9 20:16:49 10° W 20:20:04 17° SW 20:23:19 10° SSW
Cosmos 2123 Rocket 4.2 20:15:26 10° S 20:21:33 57° E 20:27:45 10° NNE
Cosmos 405 3.0 20:21:33 10° N 20:25:01 65° ENE 20:28:05 12° SSE
Cosmos 1844 Rocket 3.1 20:19:41 10° NW 20:25:15 57° WSW 20:30:48 10° S
Cosmos 2233 Rocket 4.4 20:20:59 10° N 20:27:00 53° ENE 20:32:42 11° SSE
Cosmos 1452 Rocket 4.0 20:22:50 10° SW 20:28:05 65° WNW 20:33:22 10° NNE
Cosmos 2100 Rocket 4.5 20:22:41 10° NNW 20:29:00 63° W 20:35:13 10° S
ARIANE 5 R/B 3.6 20:30:03 10° S 20:34:17 43° W 20:38:37 10° NNW
H-2A R/B 3.7 20:31:53 10° NNE 20:35:53 50° E 20:39:42 11° S
Cosmos 1340 2.8 20:32:15 10° S 20:35:56 58° E 20:39:40 10° NNE
GEOS 3 Rocket 4.0 20:30:40 10° ESE 20:35:59 67° NE 20:41:18 10° NW
NOSS 3-2 (C) 4.2 20:30:38 10° WSW 20:36:27 61° NW 20:43:17 10° NE
Cosmos 1908 4.4 20:32:58 10° NNW 20:36:38 39° W 20:40:14 10° SSW
Cosmos 1346 Rocket 4.3 20:35:48 12° SE 20:38:27 23° E 20:41:38 10° NE
FALCON 9 DEB 3.3 20:36:42 10° SW 20:39:59 46° SSE 20:43:17 10° E
ATLAS 3B R/B 2.9 20:34:17 10° SSW 20:40:28 46° ESE 20:46:52 10° NE
Meteor 2-5 Rocket 3.9 20:36:27 10° S 20:41:50 54° E 20:47:18 10° NNE
FALCON 9 DEB 4.2 20:40:36 10° S 20:42:55 19° SE 20:45:14 10° E
Cosmos 1544 Rocket 4.2 20:39:26 10° NNW 20:43:48 52° W 20:48:06 10° S
FALCON 9 DEB 4.4 20:46:12 17° SSE 20:46:41 17° SE 20:48:50 10° E
Cosmos 1606 Rocket 4.4 20:44:22 10° N 20:48:38 41° ENE 20:52:08 14° SE
ERS-1 Rocket 3.8 20:44:59 10° S 20:49:49 46° W 20:54:41 10° NNW
Cosmos 2016 Rocket 4.2 20:44:07 10° NNW 20:50:11 68° W 20:56:14 10° S
Lacrosse 5 rocket 1.2 20:47:05 10° SW 20:50:34 45° SE 20:54:02 10° ENE
SJ 16-02 4.0 20:49:50 10° NNE 20:51:32 12° NE 20:53:14 10° ENE
Cosmos 1331 Rocket 4.1 20:46:35 10° SSW 20:51:50 83° WNW 20:57:10 10° NNE
Cosmos 2333 4.2 20:46:09 10° SSW 20:51:51 68° ESE 20:57:33 10° NE
FALCON 9 DEB 4.1 20:50:01 11° SSW 20:52:18 21° SE 20:54:45 10° E
Cosmos 1943 Rocket 4.3 20:51:15 10° NNW 20:55:21 21° NNE 20:59:26 10° E
USA 215 3.8 20:53:00 10° ENE 20:58:58 36° SE 21:04:55 10° SSW
ALOS 2 4.1 20:55:21 10° ESE 20:59:01 27° ENE 21:02:42 10° N
BREEZE-M DEB (TANK) 2.7 20:59:31 10° SW 21:02:13 40° SSE 21:08:12 10° E
Cosmos 1725 Rocket 4.3 20:56:11 10° NNW 21:02:18 65° W 21:08:12 11° S
Cosmos 2333 Rocket 2.2 20:57:25 10° SSW 21:03:07 69° ESE 21:08:50 10° NE
Spot 4 4.4 21:00:01 14° SE 21:03:54 49° ENE 21:08:31 10° N
SL-23 DEB 4.5 21:00:01 10° W 21:04:07 82° S 21:11:24 10° ESE
Cosmos 1626 3.5 21:05:32 10° SW 21:08:58 37° WNW 21:12:28 10° N
Meteor 2-10 Rocket 3.4 21:04:35 10° NNW 21:09:45 83° ENE 21:13:41 17° SSE
Cosmos 1302 Rocket 4.0 21:05:27 10° SSW 21:10:42 78° ESE 21:15:59 10° NNE
SL-14 R/B 3.9 21:09:02 10° SSW 21:13:01 55° WNW 21:16:59 10° N
Cosmos 2219 Rocket 2.2 21:08:33 10° SSW 21:14:12 72° ESE 21:19:52 10° NNE
Cosmos 1607 4.2 21:08:24 10° NW 21:14:53 73° NE 21:20:59 11° SE
Cosmos 1867 3.6 21:11:21 10° NW 21:16:52 76° SW 21:21:11 17° SSE
Cosmos 1536 Rocket 4.1 21:15:19 10° SSW 21:19:43 60° WNW 21:24:09 10° N
CENTAUR R/B 4.1 21:14:17 10° W 21:20:30 44° NNW 21:27:52 10° NE
Meteor 1-24 Rocket 3.6 21:21:06 12° SSW 21:26:05 86° WNW 21:31:38 10° NNE
SL-16 R/B 4.2 21:24:50 10° ESE 21:27:04 12° E 21:29:19 10° ENE
Cosmos 389 Rocket 2.4 21:24:44 10° NNW 21:28:10 74° W 21:30:14 22° S
COBE Rocket 4.3 21:25:02 17° SSE 21:28:50 59° ENE 21:33:42 10° N
Cosmos 2237 Rocket 3.0 21:27:22 18° SSE 21:30:47 34° ESE 21:35:47 10° NE
Iridium 2 3.8 21:30:31 22° SSE 21:32:46 58° E 21:36:29 10° NNE
Cosmos 2228 3.3 21:29:26 10° NNW 21:33:49 65° W 21:36:56 19° S
USA 267 3.2 21:28:22 10° ESE 21:34:56 82° SSW 21:41:32 10° WNW
Cosmos 2360 Rocket 3.5 21:31:33 10° WSW 21:36:54 42° NW 21:42:16 10° NNE
SL-16 R/B 4.5 21:32:37 10° W 21:37:20 26° NW 21:42:06 10° NNE
Cosmos 2369 Rocket 4.3 21:33:08 10° NNW 21:37:39 23° NE 21:42:08 10° E
Cosmos 2322 Rocket 4.2 21:34:18 10° WSW 21:39:16 30° NW 21:44:17 10° NNE
Meteor 1-4 Rocket 4.2 21:37:25 10° N 21:40:21 24° ENE 21:42:37 14° ESE
Cosmos 1486 Rocket 4.4 21:36:30 10° NNW 21:41:36 55° WSW 21:45:12 19° S
Cosmos 1455 2.1 21:39:37 10° N 21:43:29 85° ENE 21:45:44 24° SSE
ATLAS CENTAUR R/B 3.2 21:42:45 10° WNW 21:46:01 21° WSW 21:48:22 14° SSW
Cosmos 2034 Rocket 4.4 21:40:11 10° N 21:46:18 56° ENE 21:51:00 17° SSE
Cosmos 968 Rocket 4.4 21:45:19 10° NW 21:49:59 36° WSW 21:53:28 16° SSW
Cosmos 1184 Rocket 3.3 21:49:59 27° SSE 21:51:22 45° E 21:54:30 10° NNE
Okean 1-7 Rocket 4.2 21:50:10 21° SSE 21:52:47 44° E 21:57:01 10° NNE
Terra 3.9 21:50:28 10° SW 21:53:44 18° W 21:57:00 10° NW
COSMOS 2428 2.9 21:49:18 10° SW 21:55:02 76° WNW 22:00:50 10° NNE
Cosmos 1354 Rocket 4.1 21:50:04 10° NNW 21:55:26 79° WSW 21:59:07 21° SSE
Cosmos 2322 4.4 21:51:25 10° SW 21:56:58 56° NW 22:02:33 10° NNE
FALCON 9 DEB 3.1 21:54:51 12° SW 21:57:36 47° SSE 22:00:38 10° E
Cosmos 1992 Rocket 4.0 21:54:03 15° SSW 21:58:22 84° ESE 22:03:38 10° NNE
Cosmos 2297 4.5 21:53:32 10° NNW 21:59:01 49° NE 22:04:29 10° SE
Uosat 12 SS-18 rocket 4.2 21:54:58 10° SW 21:59:26 87° SE 22:04:44 10° NE
Cosmos 2278 Rocket 2.5 21:54:41 10° NW 22:00:15 57° WSW 22:04:01 20° S
ATLAS CENTAUR R/B 4.0 21:59:32 20° S 22:03:14 39° ESE 22:15:01 10° NE
Cosmos 2058 Rocket 3.1 22:00:06 10° NNW 22:04:36 78° W 22:07:18 23° S
Cosmos 1726 Rocket 4.4 22:07:48 10° NNW 22:12:02 43° W 22:14:53 19° SSW
GENESIS II 4.3 22:11:59 23° SSW 22:14:12 56° SE 22:18:02 10° NE
Cosmos 1346 Rocket 3.9 22:11:16 13° SW 22:14:35 40° WNW 22:18:25 10° N
Tsikada Rocket 4.5 22:11:29 19° SSE 22:15:44 48° E 22:21:37 10° NNE
FALCON 9 DEB 3.2 22:13:22 10° W 22:16:48 78° N 22:20:13 10° E
FALCON 9 DEB 2.7 22:15:04 10° WSW 22:18:09 72° SSE 22:21:15 10° ENE
GP-B 4.0 22:14:16 10° NNE 22:18:29 40° E 22:21:12 19° SE
FALCON 9 DEB 2.7 22:18:52 10° WSW 22:21:58 66° SSE 22:25:04 10° ENE
NOSS 0 Rocket 3.9 22:16:43 13° SSW 22:22:23 89° ESE 22:28:41 10° NNE
SL-4 R/B 2.6 22:22:18 27° S 22:23:10 30° SSE 22:26:27 10° E
Aureole 3 4.3 22:22:08 10° N 22:25:29 38° ENE 22:28:14 17° SE
FALCON 9 DEB 2.7 22:24:30 10° WSW 22:27:36 77° SSE 22:30:43 10° ENE
Lacrosse 5 rocket 1.9 22:26:08 10° W 22:29:40 50° NNW 22:33:10 10° ENE
ATLAS 3B R/B 3.3 22:24:34 10° WSW 22:31:05 58° NW 22:37:53 10° NE
SJ 16-02 1.8 22:26:46 10° NNW 22:31:07 57° ENE 22:34:21 17° SE
Cosmos 1892 Rocket 4.3 22:29:33 17° SW 22:32:45 49° WNW 22:37:06 10° N
ALOS 2 3.3 22:32:40 22° SSW 22:35:10 44° W 22:39:24 10° NNW
Nimbus 7 Rocket 4.5 22:32:25 10° NNE 22:38:30 79° ESE 22:42:52 20° SSW
Cosmos 1943 Rocket 2.3 22:34:35 10° NNW 22:40:06 71° ENE 22:45:00 13° SE
Cosmos 1441 Rocket 3.3 22:38:21 24° SSW 22:40:34 70° WNW 22:44:24 10° N
Cosmos 1980 3.8 22:35:59 14° SW 22:40:53 80° WNW 22:46:37 10° NNE
Cosmos 1703 3.5 22:39:40 23° SSW 22:42:00 63° WNW 22:45:57 10° N
USA 215 3.2 22:35:56 10° ENE 22:42:31 87° SSE 22:49:04 10° WSW
Cosmos 1892 4.4 22:42:44 15° SE 22:44:52 23° E 22:47:59 10° NE
Resurs 1-4 Rocket 4.4 22:45:14 10° ENE 22:47:39 13° E 22:50:03 10° ESE
USA 32 4.0 22:42:33 10° N 22:47:50 86° W 22:51:17 22° S
Cosmos 2333 Rocket 3.9 22:42:49 10° WSW 22:47:53 31° NW 22:52:58 10° NNE
SAR-Lupe-2 3.6 22:44:56 10° NNE 22:48:33 77° WNW 22:50:28 26° SSW
Cosmos 1328 3.8 22:52:30 25° SSW 22:54:39 72° WNW 22:58:35 10° N
EO 1 Del DPAF 4.0 22:54:53 10° NNE 22:58:25 38° E 23:00:15 23° SSE
Cosmos 2219 Rocket 4.0 22:53:44 10° WSW 22:58:41 30° NW 23:03:39 10° NNE
CZ-2D R/B 4.3 22:56:23 10° NE 22:59:23 15° E 23:02:22 10° ESE
Thor Agena Rocket 3.6 22:55:47 10° NNE 23:01:06 87° ESE 23:04:38 21° SSW
Cosmos 1626 Rocket 3.8 22:59:58 22° SSW 23:02:46 66° WNW 23:07:13 10° N
PSLV R/B 3.6 23:02:57 10° NNE 23:07:16 74° ESE 23:09:53 24° S
Cosmos 1634 Rocket 4.0 23:01:23 10° NNW 23:07:44 84° W 23:12:24 19° S
Cosmos 2279 Rocket 4.2 23:01:57 10° N 23:08:13 68° ENE 23:13:22 15° SSE
Helios 1A 3.9 23:05:25 13° SE 23:08:55 44° ENE 23:12:55 10° N
Cosmos 1602 Rocket 3.6 23:06:53 23° SSW 23:09:39 77° WNW 23:14:10 10° N
SL-16 R/B 2.3 23:06:17 21° SSW 23:10:06 66° ESE 23:15:45 10° NE
X-37B 3.2 23:16:04 10° SE 23:16:04 10° SE 23:16:05 10° ESE
Cosmos 2237 Rocket 2.8 23:09:10 10° SW 23:14:40 53° NW 23:20:11 10° NNE
Meteor 1-4 Rocket 3.8 23:12:18 10° NNW 23:15:20 28° W 23:16:45 21° SW
Cosmos 1758 Rocket 3.6 23:14:18 23° S 23:17:00 81° E 23:21:27 10° NNE
Cosmos 405 Rocket 4.2 23:15:08 15° SE 23:17:18 25° E 23:20:24 10° NE
Cosmos 1825 3.9 23:15:22 14° SE 23:17:46 25° E 23:20:53 10° NE
USA 267 4.0 23:14:47 19° S 23:18:33 33° SW 23:24:21 10° WNW
Cosmos 2369 Rocket 2.3 23:16:50 10° NNW 23:22:37 79° ENE 23:28:20 10° SE
Cosmos 1656 Rocket 4.3 23:19:07 10° NNW 23:24:45 58° NE 23:30:21 10° SE
Lacrosse 4 Rocket 3.8 23:23:48 10° NNW 23:27:14 24° NE 23:30:35 10° E
Cosmos-2242 3.3 23:26:22 10° NNW 23:30:43 59° W 23:33:23 22° SSW
Cosmos 2263 4.5 23:25:44 10° NNW 23:31:28 70° ENE 23:37:06 10° SE
FALCON 9 DEB 3.0 23:30:07 10° W 23:33:15 75° N 23:36:23 10° E
NOSS 2-3 (C) 4.1 23:31:45 23° S 23:34:06 46° SE 23:38:50 10° NE
Cosmos 1174 4.4 23:35:01 18° SSW 23:39:15 79° SE 23:43:48 10° NE
Cosmos 1408 2.7 23:37:17 24° S 23:39:23 70° E 23:43:04 10° NNE
Cosmos 2297 4.4 23:37:57 10° NW 23:43:05 37° WSW 23:46:30 19° SSW
Cosmos 2278 Rocket 4.4 23:42:24 10° W 23:43:06 10° W 23:43:48 10° W
Cosmos 1242 Rocket 3.8 23:47:04 10° N 23:50:26 37° ENE 23:53:48 10° SE
YAOGAN 11 4.2 23:47:40 19° S 23:50:48 69° WSW 23:55:19 10° NNW
FALCON 9 DEB 3.0 23:50:21 10° WNW 23:53:47 89° S 23:57:11 10° ESE
FALCON 9 DEB 3.1 23:50:43 10° W 23:53:49 72° N 23:56:54 10° E
NOSS 8 (E) 4.4 23:55:06 25° SSW 23:56:39 51° SE 23:59:33 10° NE
